Regional Weather Roundup
Issued by NWS

Home | Current Version | Previous Version | Text Only | Print | Product List | Glossary Off
Versions: 1 2 3 4 5 6 7 8 9 10 11 12 13 14 15 16 17 18 19 20 21 22 23 24 25 26 27 28 29 30 31 32 33 34 35 36 37 38 39 40 41 42 43 44 45 46 47 48 49 50

000
ASUS43 KTOP 141908
RWRKS

WEATHER ROUNDUP FOR KANSAS
NATIONAL WEATHER SERVICE GOODLAND KS
200 PM CDT SUN SEP 14 2014

NOTE:  "FAIR" INDICATES FEW OR NO CLOUDS BELOW 12,000 FEET WITH NO
SIGNIFICANT WEATHER AND/OR OBSTRUCTIONS TO VISIBILITY.

KSZ001>006-013>018-027>032-041>047-142000-
NORTHWEST KANSAS

CITY           SKY/WX    TMP DP  RH WIND       PRES   REMARKS
GOODLAND       MOSUNNY   68  55  63 S14       30.07F
HAYS           PTSUNNY   72  57  60 SE20      30.07F
HILL CITY      MOSUNNY   71  55  56 SE15G23   30.06F
RUSSELL        MOSUNNY   72  57  59 S16G23    30.07F
$$

KSZ061>065-074>080-084>089-142000-
SOUTHWEST KANSAS

CITY           SKY/WX    TMP DP  RH WIND       PRES   REMARKS
DODGE CITY     SUNNY     82  58  43 S21G31    30.07F
ELKHART          N/A    N/A N/A N/A MISG        N/A
GARDEN CITY    SUNNY     80  58  46 S14G26    30.04F
GREAT BEND     SUNNY     75  57  53 S17G25    30.07F
LIBERAL        SUNNY     84  61  45 S21G29    30.07F
PRATT          SUNNY     79  54  41 S17       30.10F
$$

KSZ066>073-081>083-090>101-142000-
SOUTHEAST KANSAS

CITY           SKY/WX    TMP DP  RH WIND       PRES   REMARKS
CHANUTE        SUNNY     71  54  54 S8        30.19F
COFFEYVILLE    SUNNY     72  57  59 S9        30.19F
HUTCHINSON     SUNNY     76  55  48 S18G30    30.11F
MEDICINE LODGE   N/A     81  58  45 S18G25    30.08F
NEWTON         PTSUNNY   73  54  49 S18G24    30.15F
PARSONS        SUNNY     71  55  56 VRB6      30.20F
WICHITA INTL   MOSUNNY   75  54  47 S16G22    30.13F
WICHITA JABRA  CLOUDY    72  54  53 S15       30.14F
WICHITA MCCONL MOSUNNY   72  54  53 S12       30.14F
WINFIELD       MOSUNNY   73  58  59 S13G21    30.16F
$$

KSZ007>012-019>026-033>040-048>060-102>105-142000-
NORTHEAST KANSAS

CITY           SKY/WX    TMP DP  RH WIND       PRES   REMARKS
CONCORDIA      MOSUNNY   69  53  56 SE10      30.12F
EMPORIA        SUNNY     70  53  54 S12       30.16F
LAWRENCE       MOSUNNY   71  53  52 S9        30.18F
MANHATTAN      SUNNY     74  52  46 S13G21    30.13F
OLATHE IND     CLOUDY    69  55  60 S6G17     30.19F
OLATHE EXE     CLOUDY    67  54  63 S8        30.18F
SALINA         PTSUNNY   74  54  49 SE15      30.12F
TOPEKA BILLARD SUNNY     72  53  51 SE8       30.16F
TOPEKA FORBES  SUNNY     71  52  50 S12       30.16F
$$


USA.gov is the U.S. government's official web portal to all federal, state and local government web resources and services.